[[{"header":{"parameterUnit":"m.s-1","parameterCategory":1,"la1":30.2991,"la2":30.254,"lo1":-89.0895,"lo2":-89.0444,"dy":0.0017,"dx":0.0017,"nx":28,"ny":28,"refTime":"2023-08-06T03:00:00:Z","depth":0,"parameterNumber":2,"parameterNumberName":"U-component_of_WINDS"},"data":[0,0,0,0,0,0,0,0,0,0,0,0,0,0,0,0,0,0,0,0,0,0,0,0,0,0,0,0,0,0,0,0,0,0,0,0,0,0,0,0,0,0,0,0,0,0,0,0,0,0,0,0,0,0,0,0,0,0,4.0119,4.012,0,4.0205,4.0206,4.0207,4.014,4.0137,4.0134,4.0131,4.022,4.0225,4.023,0,0,0,0,0,0,0,0,0,0,0,0,0,3.9893,3.9898,4.0119,4.012,4.0121,4.0205,4.0206,4.0207,4.014,4.0136,4.0133,4.013,4.0218,4.0224,4.023,0,0,0,0,0,0,0,0,0,0,0,0,0,3.9987,3.9899,4.0119,4.0097,4.0096,4.0205,4.0206,4.0208,4.0141,4.0136,4.0132,4.0128,4.0216,4.0224,4.0231,4.0365,0,0,4.0254,4.0258,0,0,0,0,0,0,0,0,3.9981,3.9995,4.0099,4.0099,4.0098,4.0157,4.0159,4.026,4.0142,4.0124,4.0131,4.0126,4.0203,4.0211,4.0237,4.0369,4.0373,4.0255,4.026,4.0263,4.0265,0,0,0,0,0,0,0,3.9975,3.9991,4.0153,4.0101,4.01,4.0083,4.0091,4.0178,4.0187,4.0125,4.012,4.0132,4.0201,4.023,4.0238,4.0374,4.0255,4.0261,4.0266,4.0269,4.0616,4.062,0,0,0,0,0,0,3.9971,3.9986,4.015,4.0155,4.0028,4.009,4.01,4.0143,4.0185,4.0188,4.0135,4.0128,4.0219,4.0229,4.0241,4.0397,4.0263,4.027,4.0274,4.0611,4.0617,4.0622,0,0,0,0,0,0,3.9966,3.9986,4.0147,4.0069,4.0089,4.0099,4.0147,4.0147,4.0175,4.0193,4.0194,4.0163,4.0216,4.023,4.0333,4.0399,4.0273,4.028,4.0606,4.0613,4.0619,4.0712,0,0,0,0,0,0,3.996,3.9985,4.0037,4.0071,4.0093,4.0239,4.0152,4.0151,4.0188,4.0179,4.0219,4.0221,4.0213,4.0322,4.0341,4.0407,4.0286,4.06,4.0609,4.0617,4.0703,4.0721,4.0737,0,0,0,0,0,3.9952,4.006,4.004,4.006,4.0158,4.0243,4.0255,4.0243,4.0194,4.0245,4.0256,4.022,4.039,4.0334,4.0354,4.0424,4.0595,4.0606,4.0616,4.0695,4.0718,4.0736,0,0,0,0,0,0,4.0034,4.0065,4.0042,4.0165,4.0201,4.0231,4.0295,4.0268,4.032,4.031,4.0294,4.0303,4.041,4.0428,4.0365,4.0553,4.0484,4.0499,4.0537,4.0559,4.0575,4.0568,4.0292,0,0,0,0,0,4.0067,4.0133,4.0156,4.0262,4.0282,4.0286,4.0322,4.031,4.0347,4.0363,4.0381,4.0419,4.048,4.0521,4.0578,4.0706,4.0711,4.0763,4.078,4.0794,4.0806,4.0871,4.0893,4.0656,4.0656,4.0656,0,0,4.0135,4.0159,4.0203,4.0279,4.0306,4.0374,4.0299,4.0375,4.0425,4.0374,4.0471,4.0487,4.0527,4.0642,4.0693,4.0659,4.0873,4.0807,4.0818,4.0823,4.0884,4.0906,4.0926,4.0663,4.0662,4.0661,0,0,4.0291,4.0319,4.0407,4.0435,4.0477,4.0478,4.0499,4.0533,4.054,4.0638,4.0599,4.0658,4.0765,4.0794,4.0823,4.0988,4.0955,4.1007,4.1094,4.1157,4.1176,4.1192,4.1247,4.1268,4.102,4.102,4.102,0,4.037,4.0471,4.0457,4.0534,4.0568,4.0524,4.0613,4.0641,4.0699,4.0723,4.0684,4.0814,4.0839,4.0957,4.0997,4.1023,4.1045,4.1002,4.1175,4.1191,4.1206,4.1258,4.1279,4.1026,4.1025,4.1025,4.1024,0,4.0564,4.0634,4.0701,4.0757,4.0798,4.0881,4.0878,4.0921,4.0905,4.091,4.1007,4.1035,4.1095,4.1123,4.1109,4.1239,4.1216,4.1177,4.1107,4.1234,4.1283,4.1303,4.1034,4.1032,4.103,4.1029,0,0,4.0776,4.082,4.0844,4.0867,4.0908,4.0962,4.1042,4.11,4.1136,4.1177,4.1241,4.1331,4.1294,4.1326,4.1315,4.1371,4.1494,4.1323,4.1324,4.1351,4.1635,4.1662,4.1686,4.1474,4.1478,4.1481,4.163,0,4.0931,4.107,4.1058,4.1188,4.1251,4.1209,4.1278,4.131,4.1316,4.137,4.1377,4.1439,4.1387,4.1405,4.1459,4.1468,4.155,4.1457,4.1531,4.1534,4.1519,4.1712,4.1742,4.1881,4.1649,4.1653,4.1655,0,4.1132,4.1178,4.1314,4.1342,4.1368,4.143,4.148,4.1533,4.1567,4.1567,4.1603,4.158,4.1659,4.1589,4.1695,4.1631,4.1661,4.167,4.1675,4.1679,4.16,4.1718,4.1926,4.1946,4.1686,4.1683,4.1681,0,4.1268,4.1364,4.1457,4.1478,4.1514,4.1558,4.1575,4.1605,4.1639,4.1684,4.1705,4.1759,4.1787,4.1828,4.182,4.1771,4.1927,4.1857,4.1927,4.1928,4.1961,4.1958,4.2173,4.1985,4.1985,4.1984,4.1984,0,4.1441,4.1526,4.1518,4.1575,4.1667,4.1652,4.1743,4.1754,4.1781,4.1838,4.1806,4.186,4.1848,4.1901,4.1896,4.1982,4.1996,4.1997,4.1994,4.1998,4.1998,4.2016,4.2005,4.199,4.1989,4.1988,4.1987,0,4.1608,4.1607,4.1704,4.1729,4.1737,4.1804,4.1824,4.1877,4.188,4.1952,4.1969,4.1973,4.2034,4.203,4.21,4.2096,4.2201,4.2189,4.219,4.2186,4.2255,4.2247,4.2486,4.2515,4.2311,4.2313,4.2315,0,4.1717,4.1781,4.1811,4.1847,4.1866,4.1925,4.1959,4.1946,4.1983,4.2024,4.2071,4.2129,4.2174,4.2273,4.2282,4.2334,4.232,4.2401,4.2328,4.2329,4.2317,4.2312,4.2317,4.2414,4.2416,4.2418,4.242,0,4.191,4.1906,4.1956,4.2006,4.2047,4.2086,4.2121,4.2152,4.2143,4.2185,4.2246,4.2281,4.2351,4.2407,4.2456,4.2472,4.2444,4.2443,4.2461,4.2465,4.2461,4.246,4.2225,4.2437,4.2435,4.2434,4.2433,4.2432,4.2049,4.2102,4.2131,4.2187,4.2212,4.2245,4.2294,4.2302,4.2353,4.2407,4.2397,4.2465,4.2494,4.2557,4.2578,4.2629,4.2601,4.2628,4.2635,4.2641,4.2647,4.2455,4.2639,4.2638,4.2638,4.2638,4.2637,0,4.2237,4.2253,4.2305,4.2354,4.2398,4.2367,4.2404,4.2442,4.2502,4.2532,4.2576,4.2644,4.2698,4.2711,4.2762,4.2801,4.2789,4.2815,4.281,4.2814,4.2672,4.2649,4.2823,4.2823,4.2823,4.2823,4.2823,4.2823,4.234,4.2426,4.2424,4.2521,4.2537,4.2602,4.2625,4.2654,4.2677,4.2755,4.2799,4.2807,4.2829,4.2881,4.2928,4.293,4.2949,4.298,4.2977,4.2843,4.2824,4.2806,4.2785,4.2985,4.2985,4.3114,4.3115,4.3116]},{"header":{"parameterUnit":"m.s-1","parameterCategory":1,"la1":30.2991,"la2":30.254,"lo1":-89.0895,"lo2":-89.0444,"dy":0.0017,"dx":0.0017,"nx":28,"ny":28,"refTime":"2023-08-06T03:00:00:Z","depth":0,"parameterNumber":3,"parameterNumberName":"V-component_of_WINDS"},"data":[0,0,0,0,0,0,0,0,0,0,0,0,0,0,0,0,0,0,0,0,0,0,0,0,0,0,0,0,0,0,0,0,0,0,0,0,0,0,0,0,0,0,0,0,0,0,0,0,0,0,0,0,0,0,0,0,0,0,6.403,6.4031,0,6.4068,6.4068,6.4069,6.4017,6.4015,6.4013,6.4011,6.4045,6.4047,6.405,0,0,0,0,0,0,0,0,0,0,0,0,0,6.3908,6.3911,6.403,6.4031,6.4031,6.4068,6.4068,6.4069,6.4017,6.4015,6.4013,6.4011,6.4044,6.4047,6.405,0,0,0,0,0,0,0,0,0,0,0,0,0,6.3955,6.3912,6.403,6.401,6.4009,6.4068,6.4068,6.4069,6.4018,6.4015,6.4012,6.4009,6.4043,6.4047,6.4051,6.413,0,0,6.4063,6.4064,0,0,0,0,0,0,0,0,6.3952,6.396,6.4013,6.4012,6.401,6.4035,6.4037,6.4089,6.4018,6.4014,6.4011,6.4008,6.4043,6.4047,6.406,6.4131,6.4133,6.4063,6.4065,6.4067,6.4068,0,0,0,0,0,0,0,6.3949,6.3958,6.4045,6.4013,6.4012,6.3997,6.4001,6.4047,6.4044,6.4014,6.4011,6.4016,6.4042,6.4056,6.406,6.4133,6.4063,6.4066,6.4069,6.407,6.4267,6.427,0,0,0,0,0,0,6.3949,6.3955,6.4044,6.4046,6.3974,6.4002,6.4006,6.403,6.4043,6.4042,6.4018,6.4013,6.4051,6.4056,6.4061,6.4152,6.4067,6.4071,6.4073,6.4265,6.4268,6.4271,0,0,0,0,0,0,6.3947,6.3958,6.4042,6.4,6.4009,6.4007,6.4034,6.4032,6.4046,6.4046,6.4045,6.4034,6.4049,6.4056,6.4113,6.4153,6.4072,6.4076,6.4261,6.4266,6.427,6.4336,0,0,0,0,0,0,6.3944,6.3957,6.3989,6.4001,6.4012,6.4095,6.4037,6.4035,6.4053,6.4047,6.406,6.406,6.4047,6.4107,6.4117,6.4157,6.4079,6.4257,6.4263,6.4268,6.433,6.4342,6.4352,0,0,0,0,0,6.3939,6.4006,6.3991,6.4002,6.4052,6.4097,6.4103,6.4089,6.4057,6.4087,6.4087,6.4059,6.4147,6.4113,6.4124,6.4165,6.4255,6.4262,6.4268,6.4325,6.434,6.4352,0,0,0,0,0,0,6.3997,6.4007,6.399,6.4063,6.408,6.4089,6.4127,6.4106,6.4131,6.4124,6.4104,6.4108,6.4168,6.4173,6.4135,6.4241,6.4195,6.4204,6.4235,6.4249,6.426,6.4256,6.4082,0,0,0,0,0,6.4018,6.4056,6.4062,6.4126,6.4135,6.413,6.4149,6.4137,6.4153,6.4159,6.4163,6.4179,6.4209,6.423,6.4258,6.4331,6.4331,6.4365,6.4376,6.4385,6.4392,6.4428,6.4442,6.4293,6.4293,6.4293,0,0,6.4062,6.4072,6.4097,6.4137,6.4149,6.4186,6.4136,6.4178,6.4205,6.4165,6.4218,6.4222,6.4238,6.4302,6.4331,6.4308,6.4433,6.4393,6.4401,6.4403,6.4436,6.445,6.4462,6.4297,6.4296,6.4296,0,0,6.4161,6.4174,6.4227,6.4239,6.4258,6.4254,6.4266,6.4278,6.4279,6.4333,6.4303,6.4334,6.4388,6.4399,6.4412,6.4514,6.4488,6.4524,6.4581,6.4616,6.4627,6.4638,6.4671,6.4684,6.4532,6.4532,6.4532,0,6.4212,6.427,6.4256,6.43,6.4317,6.4284,6.4335,6.4348,6.4374,6.4386,6.4361,6.4426,6.4435,6.45,6.4525,6.4537,6.4549,6.4521,6.4627,6.4637,6.4647,6.4678,6.4691,6.4536,6.4535,6.4535,6.4534,0,6.4331,6.4371,6.4411,6.4438,6.4459,6.4507,6.4498,6.4521,6.4507,6.4505,6.4558,6.4567,6.4596,6.4611,6.4597,6.4673,6.4658,6.4631,6.4584,6.4665,6.4694,6.4706,6.4541,6.454,6.4539,6.4538,0,0,6.4466,6.4484,6.4499,6.4509,6.4527,6.4556,6.4602,6.463,6.4649,6.4669,6.4704,6.475,6.4724,6.4739,6.4726,6.4758,6.4834,6.4726,6.4725,6.4743,6.4915,6.4933,6.4948,6.4818,6.482,6.4822,6.4912,0,6.4562,6.4641,6.4629,6.4704,6.4739,6.4708,6.4746,6.476,6.4759,6.4787,6.4785,6.4817,6.4782,6.479,6.482,6.4818,6.4868,6.4812,6.4848,6.4849,6.4842,6.4964,6.4984,6.5069,6.4924,6.4926,6.4927,0,6.4685,6.4709,6.4788,6.4797,6.4812,6.4847,6.4871,6.4899,6.4913,6.491,6.4926,6.4907,6.495,6.4905,6.4961,6.4923,6.4937,6.4939,6.4942,6.4942,6.4891,6.4964,6.5096,6.5107,6.4946,6.4944,6.4943,0,6.4771,6.4823,6.4877,6.4887,6.4901,6.4926,6.4933,6.4944,6.4962,6.4983,6.4993,6.5019,6.5032,6.5051,6.5039,6.5008,6.5096,6.5051,6.5092,6.5093,6.511,6.5109,6.5243,6.5125,6.5124,6.5124,6.5124,0,6.4878,6.4927,6.4915,6.4948,6.5,6.4986,6.5038,6.504,6.5051,6.5081,6.5056,6.5085,6.5069,6.5096,6.5087,6.5133,6.514,6.5137,6.5133,6.5137,6.5137,6.5144,6.5137,6.5128,6.5127,6.5126,6.5126,0,6.4983,6.4978,6.5033,6.5042,6.5045,6.5083,6.5089,6.5118,6.5115,6.5154,6.5162,6.5157,6.5188,6.5178,6.5211,6.5205,6.5263,6.5253,6.5258,6.5255,6.5296,6.5291,6.5436,6.5454,6.5327,6.5328,6.5329,0,6.505,6.5087,6.5099,6.5118,6.5127,6.5159,6.5176,6.5162,6.5181,6.5199,6.5226,6.5254,6.5276,6.5326,6.5324,6.5348,6.5337,6.5387,6.534,6.5343,6.5334,6.5331,6.5333,6.5395,6.5396,6.5397,6.5398,0,6.5169,6.5164,6.5191,6.5217,6.5238,6.5258,6.5275,6.5292,6.5279,6.5301,6.5333,6.535,6.5383,6.5411,6.5433,6.5437,6.5415,6.5413,6.5424,6.5427,6.5427,6.5425,6.528,6.5409,6.5408,6.5407,6.5407,6.5406,6.5254,6.5284,6.5297,6.5327,6.5339,6.5355,6.5382,6.5383,6.5409,6.5435,6.5426,6.5461,6.5472,6.5499,6.5507,6.5533,6.5514,6.553,6.5533,6.5536,6.554,6.5426,6.5537,6.5537,6.5537,6.5536,6.5536,0,6.5369,6.5375,6.5404,6.5428,6.5451,6.543,6.5447,6.5467,6.5499,6.5512,6.5534,6.5569,6.5595,6.5596,6.562,6.564,6.563,6.5647,6.5644,6.5644,6.5557,6.5545,6.5654,6.5654,6.5654,6.5654,6.5654,6.5654,6.5431,6.5479,6.5476,6.5529,6.5535,6.557,6.5581,6.5595,6.5605,6.5645,6.5667,6.5668,6.5675,6.5699,6.5722,6.5721,6.573,6.575,6.5745,6.5663,6.5651,6.564,6.5627,6.5752,6.5753,6.5829,6.583,6.583]}]]